WB4FAY-4 Weather Reports


Display with metric or nautical units.
time (UTC)temp
F
wind
direction
speed
MPH
gust
MPH
rain 1hr
in
rain 24hr
in
rain mn
in
humidity
%
barometer
mb
20180922025117 79 0 0.0 0.0 0.00 0.00 0.00 79 1019.1
20180922024616 79 0 0.0 0.0 0.00 0.00 0.00 79 1019.0
20180922023617 79 0 0.0 0.0 0.00 0.00 0.00 78 1019.0
20180922022117 80 0 0.0 0.0 0.00 0.00 0.00 78 1018.9
20180922021617 80 0 0.0 0.0 0.00 0.00 0.00 77 1018.9
20180922020617 80 0 0.0 0.0 0.00 0.00 0.00 76 1019.0
20180922020117 80 0 0.0 0.0 0.00 0.00 0.00 76 1018.9
20180922015616 80 0 0.0 0.0 0.00 0.00 0.00 76 1018.9
20180922015117 80 0 0.0 0.0 0.00 0.00 0.00 75 1018.9
20180922014116 81 0 0.0 0.0 0.00 0.00 0.00 74 1018.7
20180922013618 81 0 0.0 0.0 0.00 0.00 0.00 74 1018.7
20180922012616 81 0 0.0 0.0 0.00 0.00 0.00 73 1018.5
20180922011617 81 0 0.0 0.0 0.00 0.00 0.00 73 1018.4
20180922011116 81 0 0.0 0.0 0.00 0.00 0.00 73 1018.5
20180922010617 81 0 0.0 0.0 0.00 0.00 0.00 73 1018.5
20180922005617 82 0 0.0 0.0 0.00 0.00 0.00 72 1018.3
20180922004617 82 0 0.0 0.0 0.00 0.00 0.00 72 1018.2
20180922003116 82 0 0.0 0.0 0.00 0.00 0.00 70 1018.0
20180922002617 82 0 0.0 0.0 0.00 0.00 0.00 70 1017.9
20180922002117 83 0 0.0 0.0 0.00 0.00 0.00 70 1017.9
20180922001617 83 0 0.0 0.0 0.00 0.00 0.00 69 1017.9
20180922001117 83 0 0.0 0.0 0.00 0.00 0.00 69 1017.8
20180922000617 83 0 0.0 0.0 0.00 0.00 0.00 68 1017.8
20180922000117 83 274 0.0 2.0 0.00 0.00 0.00 67 1017.7
20180921235616 83 0 0.0 0.0 0.00 0.00 0.00 67 1017.7
20180921235117 84 333 0.0 2.0 0.00 0.00 0.00 66 1017.7
20180921234617 84 250 0.0 3.0 0.00 0.00 0.00 66 1017.6
20180921234116 84 258 0.0 2.0 0.00 0.00 0.00 64 1017.6
20180921233117 84 0 0.0 0.0 0.00 0.00 0.00 63 1017.6
20180921232617 85 0 0.0 0.0 0.00 0.00 0.00 62 1017.6
20180921232117 85 0 0.0 0.0 0.00 0.00 0.00 61 1017.5
20180921231616 85 0 0.0 0.0 0.00 0.00 0.00 60 1017.6
20180921231117 84 0 0.0 0.0 0.00 0.00 0.00 61 1017.5
20180921230617 85 0 0.0 0.0 0.00 0.00 0.00 62 1017.5
20180921230117 85 0 0.0 0.0 0.00 0.00 0.00 61 1017.5
20180921225617 85 0 0.0 0.0 0.00 0.00 0.00 61 1017.4
20180921225117 85 0 0.0 0.0 0.00 0.00 0.00 62 1017.4
20180921224617 85 346 0.0 1.0 0.00 0.00 0.00 61 1017.3
20180921223617 85 323 0.0 2.0 0.00 0.00 0.00 60 1017.3
20180921223117 86 148 1.0 2.0 0.00 0.00 0.00 61 1017.2
20180921222616 86 251 0.0 3.0 0.00 0.00 0.00 58 1017.2
20180921222117 86 323 1.0 3.0 0.00 0.00 0.00 58 1017.2
20180921221617 87 329 2.0 3.0 0.00 0.00 0.00 58 1017.2
20180921220617 87 23 1.0 8.0 0.00 0.00 0.00 57 1017.3
20180921220117 87 30 3.0 8.0 0.00 0.00 0.00 57 1017.3
20180921215617 88 16 0.0 8.0 0.00 0.00 0.00 56 1017.2
20180921213617 88 250 0.0 5.0 0.00 0.00 0.00 54 1017.2
20180921212616 88 284 0.0 4.0 0.00 0.00 0.00 54 1017.1
20180921212117 88 313 0.0 4.0 0.00 0.00 0.00 54 1017.2
20180921211617 88 292 1.0 4.0 0.00 0.00 0.00 54 1017.2
20180921210117 88 131 1.0 1.0 0.00 0.00 0.00 54 1017.4
20180921205117 89 1 0.0 2.0 0.00 0.00 0.00 55 1017.4
20180921204617 89 35 0.0 3.0 0.00 0.00 0.00 54 1017.4
20180921204117 88 270 2.0 1.0 0.00 0.00 0.00 54 1017.5
20180921203117 88 184 0.0 5.0 0.00 0.00 0.00 54 1017.5
20180921202117 88 256 0.0 2.0 0.00 0.00 0.00 55 1017.6
20180921201616 88 56 0.0 4.0 0.00 0.00 0.00 55 1017.7
20180921200617 88 7 2.0 2.0 0.00 0.00 0.00 53 1017.6
20180921200117 89 223 0.0 2.0 0.00 0.00 0.00 53 1017.8
20180921195617 89 0 0.0 0.0 0.00 0.00 0.00 53 1017.8
20180921195117 89 109 0.0 1.0 0.00 0.00 0.00 53 1017.8
20180921194117 89 72 3.0 3.0 0.00 0.00 0.00 54 1018.0
20180921193617 89 172 2.0 4.0 0.00 0.00 0.00 55 1018.1
20180921193116 88 343 2.0 4.0 0.00 0.00 0.00 54 1018.2
20180921192617 88 284 1.0 3.0 0.00 0.00 0.00 54 1018.3
20180921192116 88 202 0.0 3.0 0.00 0.00 0.00 55 1018.3
20180921191617 88 227 0.0 3.0 0.00 0.00 0.00 55 1018.3
20180921191117 88 195 1.0 4.0 0.00 0.00 0.00 53 1018.4
20180921190117 89 198 3.0 4.0 0.00 0.00 0.00 52 1018.6
20180921185616 89 202 0.0 6.0 0.00 0.00 0.00 53 1018.7
20180921184617 89 49 3.0 4.0 0.00 0.00 0.00 55 1018.8
20180921184117 89 227 1.0 4.0 0.00 0.00 0.00 54 1018.8
20180921183616 89 185 1.0 4.0 0.00 0.00 0.00 55 1019.0
20180921183117 88 161 1.0 3.0 0.00 0.00 0.00 57 1019.1
20180921182617 88 222 0.0 2.0 0.00 0.00 0.00 58 1019.3
20180921182117 88 188 0.0 4.0 0.00 0.00 0.00 59 1019.3
20180921181117 87 263 3.0 3.0 0.00 0.00 0.00 59 1019.6
20180921180117 86 234 3.0 4.0 0.00 0.00 0.00 60 1019.7
20180921175617 86 200 3.0 6.0 0.00 0.00 0.00 61 1019.7
20180921175117 86 188 2.0 4.0 0.00 0.00 0.00 62 1019.8
20180921174617 86 299 1.0 3.0 0.00 0.00 0.00 63 1019.8
20180921172617 86 85 2.0 6.0 0.00 0.00 0.00 63 1020.0
20180921171617 85 42 0.0 3.0 0.00 0.00 0.00 66 1020.0
20180921170617 84 212 0.0 2.0 0.00 0.00 0.00 67 1020.2
20180921170117 84 264 0.0 5.0 0.00 0.00 0.00 68 1020.2
20180921165616 84 184 1.0 3.0 0.00 0.00 0.00 67 1020.4
20180921164617 83 58 0.0 5.0 0.00 0.00 0.00 69 1020.6
20180921164116 82 20 1.0 3.0 0.00 0.00 0.00 70 1020.7
20180921163617 82 230 0.0 3.0 0.00 0.00 0.00 71 1020.7
20180921163117 82 182 0.0 4.0 0.00 0.00 0.00 71 1020.8
20180921162117 82 199 1.0 5.0 0.00 0.00 0.00 71 1020.8
20180921161616 82 192 0.0 4.0 0.00 0.00 0.00 70 1020.9
20180921161117 82 192 0.0 4.0 0.00 0.00 0.00 70 1020.9
20180921160116 82 188 1.0 4.0 0.00 0.00 0.00 71 1021.0
20180921155117 81 99 0.0 3.0 0.00 0.00 0.00 72 1021.1
20180921154617 81 267 0.0 1.0 0.00 0.00 0.00 72 1021.2
20180921154117 81 295 0.0 2.0 0.00 0.00 0.00 72 1021.3
20180921153617 81 193 0.0 3.0 0.00 0.00 0.00 72 1021.2
20180921153118 81 270 1.0 2.0 0.00 0.00 0.00 72 1021.2
20180921152617 81 196 0.0 3.0 0.00 0.00 0.00 72 1021.2
20180921152117 81 188 1.0 3.0 0.00 0.00 0.00 72 1021.1
20180921150617 81 13 1.0 2.0 0.00 0.00 0.00 72 1021.0
20180921150117 81 198 0.0 4.0 0.00 0.00 0.00 72 1021.1
20180921145617 81 265 1.0 3.0 0.00 0.00 0.00 72 1021.2
20180921145117 81 192 0.0 2.0 0.00 0.00 0.00 72 1021.1
20180921144617 81 0 2.0 0.0 0.00 0.00 0.00 71 1021.1
20180921143617 81 144 0.0 2.0 0.00 0.00 0.00 72 1021.0
20180921142617 80 0 0.0 0.0 0.00 0.00 0.00 72 1020.9
20180921142117 80 0 0.0 0.0 0.00 0.00 0.00 72 1021.0
20180921141617 80 175 0.0 1.0 0.00 0.00 0.00 73 1021.1
20180921141117 80 85 0.0 2.0 0.00 0.00 0.00 73 1021.1
20180921140617 80 71 0.0 2.0 0.00 0.00 0.00 73 1021.1
20180921140117 79 100 0.0 3.0 0.00 0.00 0.00 73 1021.1
20180921135617 79 295 0.0 2.0 0.00 0.00 0.00 74 1021.1
20180921135117 79 208 0.0 2.0 0.00 0.00 0.00 74 1021.1
20180921134617 79 275 0.0 1.0 0.00 0.00 0.00 74 1021.2
20180921133617 79 0 0.0 0.0 0.00 0.00 0.00 75 1021.1
20180921133117 79 0 0.0 0.0 0.00 0.00 0.00 75 1021.1
20180921132116 78 191 0.0 6.0 0.00 0.00 0.00 75 1021.2
20180921131617 78 192 0.0 2.0 0.00 0.00 0.00 75 1021.2
20180921131118 78 189 1.0 4.0 0.00 0.00 0.00 76 1021.2
20180921130617 77 209 2.0 4.0 0.00 0.00 0.00 76 1021.1
20180921130117 77 295 0.0 1.0 0.00 0.00 0.00 78 1020.9
20180921125617 77 0 0.0 0.0 0.00 0.00 0.00 79 1020.8
20180921125117 77 0 0.0 0.0 0.00 0.00 0.00 80 1020.7
20180921124617 76 0 0.0 0.0 0.00 0.00 0.00 81 1020.6
20180921123617 76 0 0.0 0.0 0.00 0.00 0.00 82 1020.5
20180921123117 76 0 0.0 0.0 0.00 0.00 0.00 82 1020.5
20180921122117 76 0 0.0 0.0 0.00 0.00 0.00 82 1020.4
20180921121117 76 0 0.0 0.0 0.00 0.00 0.00 82 1020.3
20180921120617 76 0 0.0 0.0 0.00 0.00 0.00 82 1020.3
20180921115617 76 0 0.0 0.0 0.00 0.00 0.00 82 1020.3
20180921115117 76 0 0.0 0.0 0.00 0.00 0.00 82 1020.3
20180921114618 76 0 0.0 0.0 0.00 0.00 0.00 82 1020.2
20180921114117 76 0 0.0 0.0 0.00 0.00 0.00 82 1020.0
20180921113116 76 0 0.0 0.0 0.00 0.00 0.00 82 1020.1
20180921112618 76 0 0.0 0.0 0.00 0.00 0.00 82 1020.0
20180921112117 76 0 0.0 0.0 0.00 0.00 0.00 82 1019.9
20180921111617 76 0 0.0 0.0 0.00 0.00 0.00 82 1020.0
20180921110618 76 0 0.0 0.0 0.00 0.00 0.00 82 1019.9
20180921105117 76 0 0.0 0.0 0.00 0.00 0.00 81 1019.9
20180921104617 76 0 0.0 0.0 0.00 0.00 0.00 81 1019.8
20180921103616 77 0 0.0 0.0 0.00 0.00 0.00 81 1019.8
20180921103117 77 0 0.0 0.0 0.00 0.00 0.00 80 1019.8
20180921102117 77 0 0.0 0.0 0.00 0.00 0.00 80 1019.7
20180921101632 77 0 0.0 0.0 0.00 0.00 0.00 79 1019.7
20180921101117 77 0 0.0 0.0 0.00 0.00 0.00 79 1019.7
20180921100117 77 0 0.0 0.0 0.00 0.00 0.00 78 1019.6
20180921095618 78 0 0.0 0.0 0.00 0.00 0.00 78 1019.6
20180921095117 78 0 0.0 0.0 0.00 0.00 0.00 78 1019.6
20180921094617 77 0 0.0 0.0 0.00 0.00 0.00 78 1019.5
20180921094117 78 0 0.0 0.0 0.00 0.00 0.00 78 1019.4
20180921093617 78 0 0.0 0.0 0.00 0.00 0.00 78 1019.4
20180921093117 78 0 0.0 0.0 0.00 0.00 0.00 78 1019.4
20180921091620 77 0 0.0 0.0 0.00 0.00 0.00 78 1019.5
20180921091117 77 0 0.0 0.0 0.00 0.00 0.00 78 1019.5
20180921090617 77 0 0.0 0.0 0.00 0.00 0.00 78 1019.5
20180921090117 77 0 0.0 0.0 0.00 0.00 0.00 78 1019.4
20180921085617 77 0 0.0 0.0 0.00 0.00 0.00 78 1019.5
20180921084617 77 0 0.0 0.0 0.00 0.00 0.00 79 1019.4
20180921084117 77 0 0.0 0.0 0.00 0.00 0.00 78 1019.1
20180921083617 77 0 0.0 0.0 0.00 0.00 0.00 78 1019.1
20180921083117 77 0 0.0 0.0 0.00 0.00 0.00 78 1019.0
20180921082616 77 0 0.0 0.0 0.00 0.00 0.00 78 1018.9
20180921081617 77 0 0.0 0.0 0.00 0.00 0.00 78 1018.9
20180921080617 77 0 0.0 0.0 0.00 0.00 0.00 78 1018.9
20180921080116 77 0 0.0 0.0 0.00 0.00 0.00 78 1018.9
20180921075617 77 0 0.0 0.0 0.00 0.00 0.00 78 1018.9
20180921074116 77 0 0.0 0.0 0.00 0.00 0.00 78 1018.8
20180921073617 77 0 0.0 0.0 0.00 0.00 0.00 77 1018.8
20180921073117 77 0 0.0 0.0 0.00 0.00 0.00 77 1018.8
20180921071617 78 0 0.0 0.0 0.00 0.00 0.00 77 1018.7
20180921071116 78 0 0.0 0.0 0.00 0.00 0.00 76 1018.7
20180921070617 78 0 0.0 0.0 0.00 0.00 0.00 76 1018.6
20180921070117 78 0 0.0 0.0 0.00 0.00 0.00 76 1018.7
20180921065618 78 0 0.0 0.0 0.00 0.00 0.00 76 1018.6
20180921065117 78 0 0.0 0.0 0.00 0.00 0.00 75 1018.7
20180921064617 78 0 0.0 0.0 0.00 0.00 0.00 75 1018.8
20180921064117 78 0 0.0 0.0 0.00 0.00 0.00 75 1018.8
20180921063617 78 0 0.0 0.0 0.00 0.00 0.00 75 1018.8
20180921063116 78 0 0.0 0.0 0.00 0.00 0.00 75 1018.8
20180921062617 78 0 0.0 0.0 0.00 0.00 0.00 74 1018.8
20180921062117 78 0 0.0 0.0 0.00 0.00 0.00 75 1018.8
20180921061616 78 0 0.0 0.0 0.00 0.00 0.00 74 1018.9
20180921061117 78 0 0.0 0.0 0.00 0.00 0.00 74 1018.9
20180921060617 78 0 0.0 0.0 0.00 0.00 0.00 74 1018.9
20180921055617 78 0 0.0 0.0 0.00 0.00 0.00 74 1019.0
20180921055117 78 0 0.0 0.0 0.00 0.00 0.00 74 1019.0
20180921054616 78 0 0.0 0.0 0.00 0.00 0.00 74 1019.0
20180921054117 78 0 0.0 0.0 0.00 0.00 0.00 74 1019.0
20180921053617 78 0 0.0 0.0 0.00 0.00 0.00 74 1019.0
20180921053116 78 0 0.0 0.0 0.00 0.00 0.00 74 1019.0
20180921052617 78 0 0.0 0.0 0.00 0.00 0.00 73 1018.9
20180921052117 78 0 0.0 0.0 0.00 0.00 0.00 73 1018.9
20180921051620 78 0 0.0 0.0 0.00 0.00 0.00 73 1018.9
20180921051117 78 0 0.0 0.0 0.00 0.00 0.00 72 1018.9
20180921050617 79 0 0.0 0.0 0.00 0.00 0.00 72 1018.9
20180921050117 79 0 0.0 0.0 0.00 0.00 0.00 72 1018.8
20180921045617 79 0 0.0 0.0 0.00 0.00 0.00 71 1018.7
20180921045117 79 0 0.0 0.0 0.00 0.00 0.00 71 1018.7
20180921044116 79 0 0.0 0.0 0.00 0.00 0.00 70 1018.7
20180921043117 79 0 0.0 0.0 0.00 0.00 0.00 70 1018.6
20180921042117 79 0 0.0 0.0 0.00 0.00 0.00 69 1018.8
20180921041617 79 0 0.0 0.0 0.00 0.00 0.00 69 1018.7
20180921041117 79 0 0.0 0.0 0.00 0.00 0.00 69 1018.7
20180921040617 79 0 0.0 0.0 0.00 0.00 0.00 69 1018.6
20180921040117 79 0 0.0 0.0 0.00 0.00 0.00 69 1018.6
20180921035617 79 0 0.0 0.0 0.00 0.00 0.00 69 1018.6
20180921035116 79 0 0.0 0.0 0.00 0.00 0.00 68 1018.6
20180921034117 80 0 0.0 0.0 0.00 0.00 0.00 68 1018.5
20180921033617 80 0 0.0 0.0 0.00 0.00 0.00 68 1018.5
20180921033116 80 0 0.0 0.0 0.00 0.00 0.00 67 1018.4
20180921032617 80 0 0.0 0.0 0.00 0.00 0.00 67 1018.4
20180921032117 80 0 0.0 0.0 0.00 0.00 0.00 67 1018.3
20180921031617 80 0 0.0 0.0 0.00 0.00 0.00 67 1018.4
20180921031117 80 0 0.0 0.0 0.00 0.00 0.00 67 1018.4
20180921030617 80 0 0.0 0.0 0.00 0.00 0.00 67 1018.4
20180921030117 80 0 0.0 0.0 0.00 0.00 0.00 67 1018.3